Mather AFB, CA

10:05 PM PDT on April 30, 2017 (GMT -0700)
Mather

Weather History for KMHR - November, 2013

Change the Weather History Date:

Thursday, November 14, 2013

  Actual Average Record
Temperature  
Mean Temperature 56 °F -  
Max Temperature 66 °F 59 °F 77 °F (2005)
Min Temperature 46 °F 41 °F 33 °F (2000)
Degree Days  
Heating Degree Days 9    
Growing Degree Days 6 (Base 50)    
Moisture  
Dew Point 42 °F    
Average Humidity 64    
Maximum Humidity 87    
Minimum Humidity 48    
Precipitation  
Precipitation 0.00 in - - ()
Sea Level Pressure  
Sea Level Pressure 29.99 in    
Wind  
Wind Speed 4 mph (South)    
Max Wind Speed 8 mph    
Max Gust Speed -    
Visibility 10 miles    
Events      
Averages and records for this station are not official NWS values.
T = Trace of Precipitation, MM = Missing Value Source: NWS Daily Summary

Daily Weather History Graph

Daily Weather History Graph

Search for Another Location

Airport or City:

Trip Planner

Search our weather history database for the weather conditions in past years. The results will help you decide how hot, cold, wet, or windy it might be!

Date:

Astronomy

Nov. 14, 2013 Rise Set
Actual Time 6:46 AM PST 4:52 PM PST
Civil Twilight 6:18 AM PST 5:20 PM PST
Nautical Twilight 5:46 AM PST 5:52 PM PST
Astronomical Twilight 5:14 AM PST 6:24 PM PST
Moon 3:15 PM PST (11/14) 3:48 AM PST (11/14)
Length of Visible Light 11h 02m
Length of Day
10h 06m
Waxing Gibbous, 92% of the Moon is Illuminated
Nov 14
Waxing Gibbous
Nov 17
Full
Nov 25
Last Quarter
Dec 2
New
Dec 9
First Quarter

Hourly Weather History & Observations

Time (PST) Temp. Windchill Dew Point Humidity Pressure Visibility Wind Dir Wind Speed Gust Speed Precip Events Conditions
12:55 AM 53.6 °F - 37.4 °F 54% 30.08 in 10.0 mi SE 8.1 mph - N/A   Clear
1:58 AM 51.8 °F - 37.4 °F 58% 30.08 in 10.0 mi SE 4.6 mph - N/A   Clear
2:55 AM 50.0 °F - 37.4 °F 62% 30.07 in 10.0 mi Calm Calm - N/A   Mostly Cloudy
3:54 AM 46.4 °F 44.3 °F 37.4 °F 71% 30.05 in 10.0 mi ESE 4.6 mph - N/A   Mostly Cloudy
4:52 AM 46.4 °F - 37.4 °F 71% 30.06 in 10.0 mi Calm Calm - N/A   Mostly Cloudy
6:48 AM 46.4 °F - 37.4 °F 71% 30.05 in 10.0 mi Calm Calm - N/A   Mostly Cloudy
7:46 AM 48.2 °F - 39.2 °F 71% 30.08 in 10.0 mi Calm Calm - N/A   Mostly Cloudy
8:49 AM 53.6 °F - 39.2 °F 58% 30.09 in 10.0 mi Calm Calm - N/A   Mostly Cloudy
9:55 AM 57.2 °F - 39.2 °F 51% 30.07 in 10.0 mi SSE 4.6 mph - N/A   Mostly Cloudy
10:48 AM 59.0 °F - 39.2 °F 48% 30.05 in 10.0 mi South 4.6 mph - N/A   Mostly Cloudy
11:45 AM 60.8 °F - 46.4 °F 59% 30.02 in 10.0 mi SSW 4.6 mph - N/A   Mostly Cloudy
12:45 PM 64.4 °F - 46.4 °F 52% 29.98 in 10.0 mi SW 5.8 mph - N/A   Mostly Cloudy
1:48 PM 66.2 °F - 46.4 °F 49% 29.96 in 10.0 mi WSW 4.6 mph - N/A   Mostly Cloudy
2:52 PM 66.2 °F - 46.4 °F 49% 29.94 in 10.0 mi SW 3.5 mph - N/A   Mostly Cloudy
3:45 PM 66.2 °F - 48.2 °F 52% 29.92 in 10.0 mi South 3.5 mph - N/A   Mostly Cloudy
4:45 PM 59.0 °F - 46.4 °F 63% 29.89 in 10.0 mi South 3.5 mph - N/A   Mostly Cloudy
5:45 PM 55.4 °F - 46.4 °F 72% 29.88 in 10.0 mi SSW 3.5 mph - N/A   Scattered Clouds
7:45 PM 50.0 °F - 46.4 °F 87% 29.85 in 10.0 mi SSE 5.8 mph - N/A   Clear
8:45 PM 48.2 °F - 44.6 °F 87% 29.84 in 10.0 mi SE 6.9 mph - N/A   Clear
10:45 PM 46.4 °F - 42.8 °F 87% 29.83 in 10.0 mi Calm Calm - N/A   Clear